EW1379 Weather Reports


Display with metric or nautical units.
time (UTC)temp
F
wind
direction
speed
MPH
gust
MPH
rain 1hr
in
rain 24hr
in
rain mn
in
humidity
%
barometer
mb
20260508211029 57 275 1.0 4.0 0.00 0.05 0.05 43 1009.8
20260508210525 57 340 1.0 4.0 0.00 0.05 0.05 42 1009.8
20260508210033 57 202 2.0 4.0 0.00 0.05 0.05 46 1009.8
20260508205540 56 218 0.0 4.0 0.00 0.05 0.05 43 1009.9
20260508205023 56 280 2.0 6.0 0.00 0.05 0.05 42 1010.0
20260508204546 56 275 2.0 7.0 0.00 0.05 0.05 45 1010.0
20260508204015 56 221 3.0 7.0 0.00 0.05 0.05 40 1010.1
20260508203548 57 284 4.0 7.0 0.00 0.05 0.05 41 1010.1
20260508203028 57 233 2.0 6.0 0.00 0.05 0.05 48 1010.2
20260508202518 56 274 2.0 8.0 0.00 0.05 0.05 46 1010.3
20260508202046 56 279 2.0 8.0 0.00 0.05 0.05 48 1010.3
20260508201520 56 238 1.0 8.0 0.00 0.05 0.05 47 1010.3
20260508201030 56 264 3.0 8.0 0.00 0.05 0.05 48 1010.4
20260508200513 55 340 4.0 7.0 0.00 0.05 0.05 47 1010.4
20260508200037 56 264 1.0 5.0 0.00 0.05 0.05 47 1010.5
20260508195530 56 221 0.0 6.0 0.00 0.05 0.05 49 1010.5
20260508195018 56 263 2.0 7.0 0.00 0.05 0.05 49 1010.5
20260508194533 56 328 2.0 7.0 0.00 0.05 0.05 47 1010.6
20260508194031 56 295 2.0 9.0 0.00 0.05 0.05 47 1010.7
20260508193522 56 296 4.0 9.0 0.00 0.05 0.05 51 1010.8
20260508193032 56 254 5.0 8.0 0.00 0.05 0.05 50 1010.8
20260508192523 55 249 2.0 9.0 0.00 0.05 0.05 50 1010.9
20260508192032 55 258 2.0 9.0 0.00 0.05 0.05 49 1010.9
20260508191536 56 268 3.0 6.0 0.00 0.05 0.05 51 1011.0
20260508191041 55 201 2.0 9.0 0.00 0.05 0.05 49 1011.0
20260508190532 56 219 3.0 9.0 0.00 0.05 0.05 53 1011.0
20260508190023 56 269 2.0 9.0 0.00 0.05 0.05 52 1010.9
20260508185538 55 304 3.0 5.0 0.00 0.05 0.05 53 1010.9
20260508185027 55 203 2.0 5.0 0.00 0.05 0.05 52 1011.0
20260508184517 55 206 3.0 7.0 0.00 0.05 0.05 56 1011.1
20260508184029 56 194 3.0 7.0 0.00 0.05 0.05 56 1011.0
20260508183527 56 247 3.0 6.0 0.00 0.05 0.05 57 1011.1
20260508183035 56 203 3.0 7.0 0.00 0.05 0.05 59 1011.0
20260508182537 55 190 3.0 7.0 0.00 0.05 0.05 55 1011.0
20260508182015 54 148 2.0 5.0 0.00 0.05 0.05 58 1011.1
20260508181540 54 211 3.0 6.0 0.00 0.05 0.05 58 1011.2
20260508181034 54 209 2.0 7.0 0.00 0.05 0.05 58 1011.2
20260508180546 54 192 4.0 7.0 0.00 0.05 0.05 58 1011.2
20260508180044 54 213 3.0 5.0 0.00 0.05 0.05 59 1011.3
20260508175531 54 273 2.0 7.0 0.00 0.05 0.05 59 1011.3
20260508175043 54 209 3.0 10.0 0.00 0.05 0.05 59 1011.4
20260508174518 53 303 4.0 10.0 0.00 0.05 0.05 58 1011.5
20260508174047 53 196 3.0 7.0 0.00 0.05 0.05 59 1011.5
20260508173522 53 197 0.0 7.0 0.00 0.05 0.05 60 1011.6
20260508173056 53 197 2.0 9.0 0.00 0.05 0.05 62 1011.7
20260508172535 53 347 4.0 9.0 0.00 0.05 0.05 59 1011.7
20260508172038 53 225 5.0 8.0 0.00 0.05 0.05 59 1011.8
20260508171528 53 119 1.0 3.0 0.00 0.05 0.05 62 1011.8
20260508171018 53 94 1.0 5.0 0.00 0.05 0.05 60 1011.8
20260508170538 53 194 3.0 5.0 0.00 0.05 0.05 65 1011.9
20260508170020 53 186 3.0 6.0 0.00 0.05 0.05 63 1012.0
20260508165546 53 185 3.0 6.0 0.00 0.05 0.05 64 1012.0
20260508165029 53 203 2.0 6.0 0.00 0.05 0.05 66 1012.1
20260508164519 52 246 3.0 5.0 0.00 0.05 0.05 66 1012.1
20260508164039 52 235 3.0 6.0 0.00 0.05 0.05 69 1012.1
20260508163535 51 197 4.0 6.0 0.00 0.05 0.05 68 1012.2
20260508163029 52 195 4.0 8.0 0.00 0.05 0.05 67 1012.2
20260508162517 51 278 3.0 8.0 0.00 0.05 0.05 68 1012.2
20260508162034 51 203 4.0 7.0 0.00 0.05 0.05 67 1012.2
20260508161540 51 197 3.0 8.0 0.00 0.05 0.05 68 1012.4
20260508161048 51 210 3.0 8.0 0.00 0.05 0.05 68 1012.3
20260508160519 50 248 3.0 7.0 0.00 0.05 0.05 69 1012.4
20260508160016 50 198 4.0 7.0 0.00 0.05 0.05 72 1012.3
20260508155515 50 221 3.0 7.0 0.00 0.05 0.05 71 1012.4
20260508155035 50 188 5.0 8.0 0.00 0.05 0.05 71 1012.3
20260508154529 50 203 5.0 6.0 0.00 0.05 0.05 73 1012.2
20260508154044 50 263 3.0 7.0 0.00 0.05 0.05 72 1012.2
20260508153540 50 206 3.0 7.0 0.00 0.05 0.05 75 1012.2
20260508153053 49 200 2.0 7.0 0.00 0.05 0.05 74 1012.2
20260508152537 49 200 3.0 7.0 0.00 0.05 0.05 74 1012.3
20260508152045 50 217 2.0 7.0 0.00 0.05 0.05 77 1012.2
20260508151540 49 197 4.0 7.0 0.00 0.05 0.05 77 1012.2
20260508151017 48 198 3.0 6.0 0.00 0.05 0.05 79 1012.1
20260508150517 47 187 1.0 5.0 0.00 0.05 0.05 81 1012.1
20260508150033 46 197 3.0 5.0 0.00 0.05 0.05 83 1012.2
20260508145523 45 196 2.0 5.0 0.00 0.05 0.05 83 1012.3
20260508145033 45 261 0.0 5.0 0.00 0.05 0.05 83 1012.4
20260508144517 45 261 1.0 5.0 0.00 0.05 0.05 83 1012.4
20260508144036 45 199 0.0 0.0 0.00 0.05 0.05 84 1012.4
20260508143549 45 199 0.0 4.0 0.00 0.05 0.05 85 1012.4
20260508143018 44 199 0.0 4.0 0.00 0.05 0.05 86 1012.5
20260508142542 44 199 2.0 4.0 0.00 0.05 0.05 86 1012.6
20260508142030 44 213 0.0 1.0 0.00 0.05 0.05 86 1012.5
20260508141538 44 271 0.0 3.0 0.00 0.05 0.05 86 1012.5
20260508141045 44 271 1.0 5.0 0.01 0.05 0.05 86 1012.5
20260508140519 44 267 1.0 5.0 0.01 0.05 0.05 87 1012.5
20260508140048 44 190 0.0 1.0 0.01 0.05 0.05 87 1012.5
20260508135542 44 290 0.0 6.0 0.02 0.05 0.05 88 1012.4
20260508135033 44 267 2.0 6.0 0.02 0.05 0.05 88 1012.4
20260508134518 43 273 2.0 5.0 0.02 0.05 0.05 89 1012.5
20260508134036 43 302 2.0 5.0 0.02 0.05 0.05 88 1012.5
20260508133535 43 260 3.0 5.0 0.02 0.05 0.05 89 1012.5
20260508133041 43 264 2.0 5.0 0.03 0.05 0.05 89 1012.5
20260508132609 43 209 3.0 5.0 0.03 0.05 0.05 89 1012.5
20260508132045 43 267 1.0 7.0 0.03 0.05 0.05 89 1012.5
20260508131532 42 258 1.0 7.0 0.03 0.05 0.05 89 1012.4
20260508131053 42 250 2.0 8.0 0.02 0.04 0.04 89 1012.4
20260508130522 42 290 3.0 11.0 0.02 0.04 0.04 89 1012.4
20260508130037 42 298 4.0 11.0 0.02 0.04 0.04 89 1012.5
20260508125525 42 280 3.0 9.0 0.01 0.03 0.03 90 1012.4
20260508125019 42 273 4.0 9.0 0.01 0.03 0.03 90 1012.3
20260508124528 42 275 0.0 5.0 0.01 0.03 0.03 91 1012.3
20260508124053 42 276 2.0 5.0 0.01 0.03 0.03 91 1012.2
20260508123545 42 260 2.0 4.0 0.01 0.03 0.03 92 1012.1
20260508123026 42 181 0.0 3.0 0.00 0.02 0.02 92 1011.9
20260508122528 42 181 1.0 4.0 0.00 0.02 0.02 92 1011.9
20260508122026 42 219 1.0 4.0 0.00 0.02 0.02 92 1011.8
20260508121546 42 196 1.0 3.0 0.00 0.02 0.02 92 1011.8
20260508121016 42 196 0.0 2.0 0.00 0.02 0.02 92 1011.6
20260508120540 41 196 0.0 0.0 0.00 0.02 0.02 92 1011.3
20260508120017 41 196 0.0 0.0 0.00 0.02 0.02 92 1011.3
20260508115518 41 196 0.0 0.0 0.00 0.02 0.02 92 1011.3
20260508115030 41 196 0.0 0.0 0.00 0.02 0.02 92 1011.3
20260508114541 41 196 0.0 0.0 0.00 0.02 0.02 92 1011.3
20260508114020 41 196 0.0 1.0 0.00 0.02 0.02 92 1011.2
20260508113033 40 186 0.0 0.0 0.00 0.02 0.02 92 1011.1
20260508112517 40 186 0.0 0.0 0.00 0.02 0.02 92 1011.0
20260508112036 40 186 0.0 0.0 0.00 0.02 0.02 92 1011.1
20260508111552 40 148 0.0 0.0 0.00 0.02 0.02 92 1011.0
20260508111023 40 148 0.0 0.0 0.00 0.02 0.02 91 1010.8
20260508110521 40 148 0.0 0.0 0.00 0.02 0.02 91 1010.9
20260508110023 40 148 0.0 0.0 0.00 0.02 0.02 91 1010.9
20260508105549 40 148 0.0 0.0 0.00 0.02 0.02 91 1010.8
20260508105018 39 148 0.0 0.0 0.00 0.02 0.02 91 1010.7
20260508104515 39 148 0.0 0.0 0.00 0.02 0.02 91 1010.6
20260508104033 39 150 0.0 0.0 0.00 0.02 0.02 91 1010.6
20260508103531 39 150 0.0 0.0 0.00 0.02 0.02 90 1010.8
20260508103035 39 150 0.0 0.0 0.00 0.02 0.02 90 1010.8
20260508102524 39 138 0.0 0.0 0.00 0.02 0.02 90 1010.9
20260508102032 39 138 0.0 0.0 0.00 0.02 0.02 90 1010.9
20260508101549 38 138 0.0 0.0 0.00 0.02 0.02 90 1010.9
20260508101037 38 137 0.0 0.0 0.00 0.02 0.02 90 1011.0
20260508100539 38 156 0.0 0.0 0.00 0.02 0.02 90 1011.1
20260508100039 38 260 0.0 0.0 0.00 0.02 0.02 90 1011.1
20260508095516 38 260 0.0 0.0 0.00 0.02 0.02 90 1011.2
20260508095047 38 260 0.0 0.0 0.00 0.02 0.02 90 1011.2
20260508094517 38 260 0.0 0.0 0.00 0.02 0.02 90 1011.3
20260508094024 38 260 0.0 0.0 0.00 0.02 0.02 89 1011.2
20260508093545 38 260 0.0 0.0 0.00 0.02 0.02 89 1011.2
20260508093028 38 260 0.0 0.0 0.00 0.02 0.02 90 1011.2
20260508092534 38 260 0.0 0.0 0.00 0.02 0.02 89 1011.3
20260508092040 38 260 0.0 0.0 0.00 0.02 0.02 89 1011.3
20260508091514 38 260 0.0 0.0 0.00 0.02 0.02 89 1011.3
20260508091043 38 260 0.0 0.0 0.00 0.02 0.02 89 1011.2
20260508090531 38 260 0.0 0.0 0.00 0.02 0.02 89 1011.3
20260508090035 38 260 0.0 0.0 0.00 0.02 0.02 89 1011.3
20260508085538 38 260 0.0 0.0 0.00 0.02 0.02 89 1011.3
20260508085034 39 260 0.0 0.0 0.00 0.02 0.02 89 1011.3
20260508084530 39 260 0.0 0.0 0.00 0.02 0.02 88 1011.2
20260508084058 39 260 0.0 0.0 0.00 0.02 0.02 88 1011.1
20260508083517 39 260 0.0 0.0 0.00 0.02 0.02 88 1011.1
20260508083042 39 260 0.0 0.0 0.00 0.02 0.02 88 1011.0
20260508082515 39 260 0.0 0.0 0.00 0.02 0.02 88 1011.0
20260508082037 40 260 0.0 0.0 0.00 0.02 0.02 88 1011.1
20260508081516 40 260 0.0 0.0 0.00 0.02 0.02 88 1011.0
20260508081044 40 260 0.0 0.0 0.00 0.02 0.02 88 1011.1
20260508080523 40 260 0.0 0.0 0.00 0.02 0.02 88 1011.1
20260508080044 40 260 0.0 0.0 0.00 0.02 0.02 88 1011.0
20260508075530 40 260 0.0 0.0 0.00 0.02 0.02 87 1010.9
20260508075017 41 260 0.0 0.0 0.00 0.02 0.02 87 1010.9
20260508074533 41 260 0.0 0.0 0.00 0.02 0.02 87 1010.9
20260508074027 41 260 0.0 0.0 0.00 0.02 0.02 87 1010.9
20260508073523 41 260 0.0 0.0 0.00 0.02 0.02 87 1010.9
20260508073033 41 260 0.0 0.0 0.00 0.02 0.02 87 1010.9
20260508072526 41 260 0.0 0.0 0.00 0.02 0.02 87 1011.1
20260508072032 42 260 0.0 0.0 0.00 0.02 0.02 87 1011.1
20260508071550 42 260 0.0 0.0 0.00 0.02 0.02 87 1011.2
20260508071017 42 260 0.0 0.0 0.00 0.02 0.02 87 1011.2
20260508070548 42 260 0.0 0.0 0.00 0.02 0.02 86 1011.0
20260508070017 43 260 0.0 0.0 0.00 0.02 0.02 87 1011.0
20260508065534 43 260 0.0 0.0 0.00 0.02 0.02 87 1011.0
20260508065024 43 260 0.0 0.0 0.00 0.02 0.02 87 1011.1
20260508064539 43 260 0.0 0.0 0.00 0.02 0.02 87 1011.1
20260508064035 43 260 0.0 0.0 0.00 0.02 0.02 87 1011.2
20260508063530 44 260 0.0 0.0 0.00 0.02 0.02 87 1011.2
20260508063018 44 260 0.0 0.0 0.00 0.02 0.02 87 1011.2
20260508062539 44 261 0.0 0.0 0.00 0.02 0.02 87 1011.3
20260508062052 44 261 0.0 0.0 0.00 0.02 0.02 87 1011.5
20260508061552 44 261 0.0 0.0 0.00 0.02 0.02 87 1011.5
20260508061037 44 261 0.0 0.0 0.00 0.02 0.02 87 1011.5
20260508060522 44 261 0.0 0.0 0.00 0.02 0.02 87 1011.5
20260508060035 44 261 0.0 0.0 0.00 0.02 0.02 87 1011.5
20260508055605 44 261 0.0 0.0 0.00 0.02 0.02 87 1011.4
20260508055022 44 260 0.0 0.0 0.00 0.02 0.02 86 1011.3
20260508054548 44 260 0.0 0.0 0.00 0.02 0.02 86 1011.4
20260508054026 44 260 0.0 0.0 0.00 0.02 0.02 86 1011.3
20260508053521 44 276 0.0 0.0 0.00 0.02 0.02 86 1011.4
20260508053051 44 280 0.0 0.0 0.00 0.02 0.02 86 1011.4
20260508052533 44 280 0.0 0.0 0.00 0.02 0.02 86 1011.5
20260508052031 44 280 0.0 0.0 0.01 0.02 0.02 86 1011.6
20260508051557 44 283 0.0 0.0 0.02 0.02 0.02 85 1011.5
20260508051026 44 277 0.0 0.0 0.02 0.02 0.02 85 1011.5
20260508050555 44 267 0.0 3.0 0.02 0.02 0.02 85 1011.4
20260508050022 44 267 0.0 3.0 0.02 0.02 0.02 84 1011.5
20260508045548 44 280 0.0 4.0 0.02 0.02 0.02 84 1011.4
20260508045022 44 281 2.0 4.0 0.02 0.02 0.02 84 1011.3
20260508044551 44 273 1.0 4.0 0.02 0.02 0.02 83 1011.3
20260508044037 44 267 1.0 4.0 0.02 0.02 0.02 83 1011.3
20260508043613 44 269 2.0 6.0 0.02 0.02 0.02 82 1011.4
20260508043022 45 267 3.0 6.0 0.02 0.02 0.02 82 1011.4
20260508042542 45 264 3.0 6.0 0.02 0.02 0.02 81 1011.4
20260508042020 45 322 2.0 6.0 0.00 0.00 0.00 80 1011.3
20260508041545 45 259 2.0 7.0 0.00 0.00 0.00 79 1011.3
20260508041036 45 288 3.0 7.0 0.00 0.00 0.00 78 1011.3
20260508040547 45 282 3.0 7.0 0.00 0.00 0.00 77 1011.2
20260508040042 45 325 2.0 6.0 0.00 0.00 0.00 78 1011.1
20260508035524 45 321 3.0 6.0 0.00 0.00 0.00 77 1011.1
20260508035058 45 313 0.0 6.0 0.00 0.00 0.00 77 1011.0
20260508034530 45 302 2.0 7.0 0.00 0.00 0.00 76 1011.0
20260508034041 45 330 2.0 6.0 0.00 0.00 0.00 76 1010.9
20260508033538 45 313 1.0 5.0 0.00 0.00 0.00 76 1011.0
20260508033025 45 284 1.0 5.0 0.00 0.00 0.00 76 1011.0
20260508032527 45 277 3.0 8.0 0.00 0.00 0.00 75 1011.0
20260508032020 45 274 1.0 8.0 0.00 0.00 0.00 75 1010.9
20260508031521 45 316 2.0 6.0 0.00 0.00 0.00 75 1010.9
20260508031024 45 278 1.0 4.0 0.00 0.00 0.00 76 1011.0
20260508030518 45 275 2.0 4.0 0.00 0.00 0.00 75 1011.1
20260508030044 44 300 1.0 5.0 0.00 0.00 0.00 75 1011.1
20260508025519 44 287 2.0 6.0 0.00 0.00 0.00 75 1011.0
20260508025049 44 279 1.0 6.0 0.00 0.00 0.00 75 1011.0
20260508024529 43 284 0.0 4.0 0.00 0.00 0.00 75 1011.1
20260508024058 43 273 2.0 5.0 0.00 0.00 0.00 75 1011.1
20260508023530 43 287 1.0 4.0 0.00 0.00 0.00 74 1011.0
20260508023026 44 328 0.0 0.0 0.00 0.00 0.00 73 1010.9
20260508022555 44 328 0.0 0.0 0.00 0.00 0.00 73 1010.7
20260508022048 44 328 0.0 0.0 0.00 0.00 0.00 73 1010.7
20260508021517 44 328 0.0 0.0 0.00 0.00 0.00 73 1010.6
20260508021022 44 328 0.0 0.0 0.00 0.00 0.00 72 1010.7
20260508020540 44 328 0.0 0.0 0.00 0.00 0.00 71 1010.6
20260508020018 44 328 0.0 0.0 0.00 0.00 0.00 69 1010.6
20260508015516 45 328 0.0 0.0 0.00 0.00 0.00 68 1010.4
20260508015034 45 328 0.0 0.0 0.00 0.00 0.00 68 1010.4
20260508014548 45 328 0.0 0.0 0.00 0.00 0.00 67 1010.4
20260508014046 45 328 0.0 0.0 0.00 0.00 0.00 67 1010.3
20260508013532 45 328 0.0 0.0 0.00 0.00 0.00 67 1010.3
20260508013023 45 328 0.0 0.0 0.00 0.00 0.00 67 1010.4
20260508012518 45 328 0.0 0.0 0.00 0.00 0.00 65 1010.3
20260508012029 45 328 0.0 0.0 0.00 0.00 0.00 65 1010.4
20260508011542 46 328 0.0 0.0 0.00 0.00 0.00 65 1010.4
20260508011020 46 328 0.0 0.0 0.00 0.00 0.00 64 1010.4
20260508010549 46 328 0.0 0.0 0.00 0.00 0.00 64 1010.4
20260508010030 46 328 0.0 0.0 0.00 0.00 0.00 63 1010.3
20260508005523 46 328 0.0 0.0 0.00 0.04 0.00 63 1010.2
20260508005034 47 328 0.0 0.0 0.00 0.04 0.00 62 1010.2
20260508004524 47 328 0.0 0.0 0.00 0.04 0.00 61 1010.1
20260508004037 47 328 0.0 0.0 0.00 0.04 0.00 60 1010.1
20260508003539 47 328 0.0 4.0 0.00 0.04 0.00 60 1010.1
20260508003036 47 328 2.0 4.0 0.00 0.04 0.00 59 1010.1
20260508002539 47 328 3.0 4.0 0.00 0.04 0.00 59 1010.0
20260508002046 48 321 0.0 0.0 0.00 0.04 0.00 58 1010.0
20260508001520 48 321 0.0 0.0 0.00 0.04 0.00 58 1009.9
20260508001045 48 321 0.0 1.0 0.00 0.04 0.00 57 1009.8
20260508000522 48 320 0.0 4.0 0.00 0.04 0.00 58 1009.8
20260508000053 48 338 1.0 4.0 0.00 0.04 0.00 58 1009.8
20260507235524 49 355 1.0 4.0 0.00 0.05 0.00 57 1009.8
20260507235033 49 348 2.0 4.0 0.00 0.05 0.00 56 1009.8
20260507234521 49 346 0.0 4.0 0.00 0.05 0.00 57 1009.8
20260507234018 49 346 2.0 5.0 0.00 0.05 0.00 56 1009.9
20260507233526 49 334 3.0 5.0 0.00 0.05 0.00 56 1009.8
20260507233047 49 327 2.0 6.0 0.00 0.05 0.00 55 1009.8
20260507232537 49 323 3.0 7.0 0.00 0.05 0.00 55 1009.7
20260507232023 49 323 3.0 8.0 0.00 0.05 0.00 55 1009.8
20260507231540 50 321 3.0 8.0 0.00 0.05 0.00 55 1009.9
20260507231020 50 334 3.0 7.0 0.00 0.05 0.00 55 1009.8
20260507230553 50 339 4.0 6.0 0.00 0.05 0.00 54 1009.8
20260507230049 50 335 2.0 6.0 0.00 0.05 0.00 54 1009.8
20260507225519 50 317 4.0 8.0 0.00 0.05 0.00 53 1009.7
20260507225040 50 347 4.0 8.0 0.00 0.05 0.00 54 1009.7
20260507224551 50 298 4.0 9.0 0.00 0.05 0.00 52 1009.8
20260507224019 51 338 6.0 9.0 0.00 0.05 0.00 51 1009.8
20260507223538 51 332 3.0 7.0 0.00 0.05 0.00 53 1009.7
20260507223041 51 289 2.0 7.0 0.00 0.05 0.00 52 1009.6
20260507222530 51 327 2.0 6.0 0.00 0.05 0.00 54 1009.7
20260507222020 51 290 3.0 8.0 0.00 0.05 0.00 53 1009.7
20260507221518 51 341 5.0 8.0 0.00 0.05 0.00 51 1009.7
20260507221025 51 355 4.0 8.0 0.00 0.05 0.00 52 1009.7
20260507220518 51 318 2.0 12.0 0.00 0.05 0.00 52 1009.8
20260507220034 52 345 5.0 12.0 0.00 0.05 0.00 50 1009.8
20260507215526 52 336 7.0 13.0 0.00 0.05 0.00 52 1009.8
20260507215031 52 342 10.0 13.0 0.00 0.05 0.00 53 1009.7
20260507214550 52 355 5.0 10.0 0.00 0.05 0.00 54 1009.8
20260507214017 52 5 7.0 10.0 0.00 0.05 0.00 54 1009.7
20260507213544 52 323 5.0 10.0 0.00 0.05 0.00 55 1009.6
20260507213022 52 324 6.0 9.0 0.00 0.05 0.00 54 1009.7
20260507212551 52 340 6.0 10.0 0.00 0.05 0.00 56 1009.7
20260507212022 52 304 6.0 10.0 0.00 0.05 0.00 55 1009.7